Location: Bukit Nyuki
(2.5885°N, 113.7476°E)
Time: 16:49:51
(UTC+00:00)

deb Chang Zheng 4 - Pass Details

Date: 18 May 2021
Orbit: 597 x 622 km, 98.6° (Epoch: 20 June)

Event Time Altitude Azimuth Distance (km) Brightness Sun altitude
Rises 21:45:48 0° 17° (NNE) 2,824 7.5 -7.5°
Reaches altitude 10° 21:47:58 10° 20° (NNE) 1,925 6.7 -7.0°
Maximum altitude 21:52:06 66° 102° (ESE) 651 4.0 -6.0°
Drops below altitude 10° 21:56:16 10° 185° (S) 1,937 5.9 -5.1°
Sets 21:58:27 0° 187° (S) 2,843 6.7 -4.5°
